FW9105 Weather Reports


time (UTC)temp
C
wind
direction
speed
KPH
gust
KPH
rain 1hr
cm
rain 24hr
cm
rain mn
cm
humidity
%
barometer
mb
20260505093003 13 323 0.0 8.0 0.00 0.00 0.00 60 1008.3
20260505091502 13 288 0.0 3.2 0.00 0.00 0.00 60 1008.4
20260505090004 13 250 1.6 4.8 0.00 0.00 0.00 60 1008.3
20260505084500 14 300 0.0 3.2 0.00 0.00 0.00 59 1008.4
20260505083000 14 313 1.6 6.4 0.00 0.00 0.00 59 1008.4
20260505081500 14 178 0.0 8.0 0.00 0.00 0.00 60 1008.4
20260505080000 13 302 1.6 3.2 0.00 0.00 0.00 62 1008.4
20260505074500 13 355 1.6 4.8 0.00 0.00 0.00 62 1008.3
20260505073001 13 288 0.0 6.4 0.00 0.00 0.00 62 1008.3
20260505071459 13 215 0.0 0.0 0.00 0.00 0.00 61 1008.4
20260505070003 13 52 0.0 3.2 0.00 0.00 0.00 61 1008.2
20260505064500 14 155 3.2 8.0 0.00 0.00 0.00 60 1008.3
20260505054500 15 169 3.2 6.4 0.00 0.00 0.00 59 1008.5
20260505053001 15 176 3.2 4.8 0.00 0.00 0.00 59 1008.8
20260505051500 15 175 3.2 4.8 0.00 0.00 0.00 59 1008.8
20260505041503 15 198 4.8 6.4 0.00 0.00 0.00 59 1008.8
20260505040005 15 171 3.2 6.4 0.00 0.00 0.00 59 1008.7
20260505034501 15 169 3.2 4.8 0.00 0.00 0.00 58 1008.8
20260505033001 15 174 1.6 4.8 0.00 0.00 0.00 59 1008.9
20260505031501 15 180 1.6 4.8 0.00 0.00 0.00 58 1008.9
20260505030001 15 167 0.0 1.6 0.00 0.00 0.00 59 1008.8
20260505024501 15 146 0.0 3.2 0.00 0.00 0.00 60 1008.9
20260505023001 15 146 0.0 3.2 0.00 0.00 0.00 61 1008.8
20260505021500 16 144 0.0 3.2 0.00 0.00 0.00 60 1008.8
20260505020005 16 172 1.6 3.2 0.00 0.00 0.00 60 1008.8
20260505014501 16 181 1.6 3.2 0.00 0.00 0.00 59 1008.4
20260505013000 16 181 0.0 3.2 0.00 0.00 0.00 59 1008.4
20260505011500 16 181 1.6 3.2 0.00 0.00 0.00 58 1008.2
20260505010005 17 180 0.0 3.2 0.00 0.00 0.00 59 1008.2
20260505003000 17 180 1.6 3.2 0.00 0.00 0.00 56 1007.8
20260505001502 18 180 0.0 0.0 0.00 0.00 0.00 53 1007.8
20260505000000 18 180 0.0 0.0 0.00 0.00 0.00 51 1007.8
20260504234500 19 180 0.0 0.0 0.00 0.00 0.00 50 1007.7
20260504232959 19 180 0.0 0.0 0.00 0.00 0.00 49 1007.7
20260504231500 19 180 1.6 4.8 0.00 0.00 0.00 49 1007.7
20260504230000 19 173 1.6 3.2 0.00 0.00 0.00 49 1007.7
20260504224459 20 173 3.2 4.8 0.00 0.00 0.00 48 1007.8
20260504223000 20 204 3.2 6.4 0.00 0.00 0.00 47 1007.7
20260504221500 20 175 0.0 3.2 0.00 0.00 0.00 46 1007.7
20260504220003 20 187 1.6 4.8 0.00 0.00 0.00 47 1007.7
20260504214500 20 173 0.0 3.2 0.00 0.00 0.00 48 1007.8
20260504213002 20 205 1.6 4.8 0.00 0.00 0.00 52 1007.8
20260504210003 20 202 1.6 4.8 0.00 0.00 0.00 51 1007.8
20260504203003 20 191 1.6 4.8 0.00 0.00 0.00 55 1008.0
20260504201502 20 185 1.6 4.8 0.00 0.00 0.00 54 1008.0
20260504191501 21 167 1.6 4.8 0.00 0.00 0.00 49 1008.5
20260504190002 21 154 3.2 8.0 0.00 0.00 0.00 48 1008.8
20260504184500 21 173 3.2 6.4 0.00 0.00 0.00 49 1008.9
20260504182959 21 109 1.6 6.4 0.00 0.00 0.00 52 1009.0
20260504181500 20 67 1.6 4.8 0.00 0.00 0.00 52 1009.3
20260504175959 20 172 3.2 8.0 0.00 0.00 0.00 54 1009.6
20260504174500 21 192 1.6 3.2 0.00 0.00 0.00 50 1009.5
20260504171459 20 100 0.0 0.0 0.00 0.00 0.00 53 1009.9